TimeEDT,TemperatureF,Dew PointF,Humidity,Sea Level PressureIn,VisibilityMPH,Wind Direction,Wind SpeedMPH,Gust SpeedMPH,PrecipitationIn,Events,Conditions,WindDirDegrees,DateUTC
12:15 AM,46.4,33.8,62,29.81,10.0,NE,5.8,-,N/A,,Overcast,40,2013-03-24 04:15:00
12:35 AM,46.4,33.8,62,29.79,10.0,NE,5.8,-,N/A,,Overcast,50,2013-03-24 04:35:00
12:55 AM,48.2,32.0,54,29.80,10.0,NE,4.6,-,N/A,,Overcast,40,2013-03-24 04:55:00
1:15 AM,48.2,33.8,58,29.82,10.0,ESE,4.6,-,N/A,,Overcast,110,2013-03-24 05:15:00
1:35 AM,48.2,33.8,58,29.82,10.0,Calm,Calm,-,N/A,,Overcast,0,2013-03-24 05:35:00
1:55 AM,46.4,35.6,66,29.83,10.0,NE,3.5,-,N/A,,Overcast,40,2013-03-24 05:55:00
2:15 AM,46.4,33.8,62,29.83,10.0,Calm,Calm,-,N/A,,Overcast,0,2013-03-24 06:15:00
2:35 AM,46.4,33.8,62,29.82,10.0,ENE,4.6,-,N/A,,Overcast,60,2013-03-24 06:35:00
2:55 AM,48.2,32.0,54,29.80,10.0,East,6.9,-,N/A,,Overcast,80,2013-03-24 06:55:00
3:15 AM,48.2,32.0,54,29.78,10.0,East,6.9,-,N/A,,Overcast,80,2013-03-24 07:15:00
3:35 AM,48.2,33.8,58,29.78,10.0,East,5.8,-,N/A,,Mostly Cloudy,80,2013-03-24 07:35:00
3:55 AM,46.4,37.4,71,29.76,10.0,NE,3.5,-,N/A,Rain,Light Rain,50,2013-03-24 07:55:00
4:15 AM,46.4,39.2,76,29.74,8.0,East,4.6,-,N/A,Rain,Light Rain,90,2013-03-24 08:15:00
4:35 AM,44.6,39.2,81,29.73,5.0,ENE,4.6,-,0.01,Rain,Light Rain,60,2013-03-24 08:35:00
4:55 AM,44.6,41.0,87,29.75,5.0,Calm,Calm,-,0.03,Rain,Light Rain,0,2013-03-24 08:55:00
5:15 AM,42.8,41.0,93,29.75,3.0,NE,3.5,-,0.02,Rain,Rain,50,2013-03-24 09:15:00
5:55 AM,42.8,41.0,93,29.72,3.0,NE,3.5,-,0.10,Rain,Light Rain,50,2013-03-24 09:55:00
6:15 AM,42.8,41.0,93,29.70,4.0,NE,8.1,-,0.01,Rain,Light Rain,50,2013-03-24 10:15:00
6:35 AM,42.8,41.0,93,29.70,5.0,ENE,6.9,-,0.03,Rain,Light Rain,70,2013-03-24 10:35:00
6:55 AM,42.8,42.8,100,29.70,3.0,ENE,4.6,-,0.05,Rain,Light Rain,60,2013-03-24 10:55:00
7:15 AM,42.8,42.8,100,29.71,3.0,ENE,4.6,-,0.01,Rain,Light Rain,70,2013-03-24 11:15:00
7:35 AM,42.8,42.8,100,29.70,2.5,NE,4.6,-,0.05,Rain,Rain,50,2013-03-24 11:35:00
7:55 AM,42.8,42.8,100,29.69,2.5,NE,4.6,-,0.10,Rain,Rain,50,2013-03-24 11:55:00
8:15 AM,42.8,42.8,100,29.68,2.5,NE,5.8,-,0.02,Rain,Rain,50,2013-03-24 12:15:00
8:35 AM,42.8,42.8,100,29.68,2.5,NNE,4.6,-,0.06,Rain,Light Rain,20,2013-03-24 12:35:00
8:55 AM,44.6,44.6,100,29.67,3.0,NE,5.8,-,0.09,Rain,Light Rain,50,2013-03-24 12:55:00
9:15 AM,44.6,44.6,100,29.65,3.0,ENE,8.1,-,0.01,Rain,Light Rain,70,2013-03-24 13:15:00
9:35 AM,44.6,44.6,100,29.63,5.0,ENE,6.9,-,0.03,Rain,Light Rain,60,2013-03-24 13:35:00
9:55 AM,44.6,44.6,100,29.63,10.0,East,5.8,-,0.03,,Mostly Cloudy,90,2013-03-24 13:55:00
10:15 AM,44.6,42.8,93,29.63,10.0,East,9.2,-,N/A,Rain,Light Rain,100,2013-03-24 14:15:00
10:35 AM,44.6,42.8,93,29.62,9.0,ENE,4.6,-,N/A,Rain,Light Rain,70,2013-03-24 14:35:00
10:55 AM,44.6,44.6,100,29.62,1.5,East,5.8,-,N/A,Rain,Light Rain,100,2013-03-24 14:55:00
11:15 AM,44.6,44.6,100,29.61,5.0,East,4.6,-,N/A,Rain,Light Rain,90,2013-03-24 15:15:00
11:35 AM,44.6,44.6,100,29.62,4.0,NE,3.5,-,N/A,Rain,Light Rain,50,2013-03-24 15:35:00
11:55 AM,44.6,44.6,100,29.61,1.8,East,5.8,-,0.04,Rain,Light Rain,80,2013-03-24 15:55:00
12:15 PM,44.6,44.6,100,29.61,4.0,Calm,Calm,-,N/A,Rain,Light Rain,0,2013-03-24 16:15:00
12:35 PM,44.6,44.6,100,29.61,2.5,East,3.5,-,0.01,Rain,Light Rain,80,2013-03-24 16:35:00
12:55 PM,44.6,44.6,100,29.61,1.0,ENE,4.6,-,0.04,Rain,Light Rain,60,2013-03-24 16:55:00
1:15 PM,44.6,44.6,100,29.59,2.0,ENE,4.6,-,N/A,Rain,Light Rain,60,2013-03-24 17:15:00
1:35 PM,46.4,46.4,100,29.58,3.0,ENE,5.8,-,N/A,Rain,Light Rain,60,2013-03-24 17:35:00
1:55 PM,46.4,46.4,100,29.56,3.0,ENE,5.8,-,0.01,Rain,Light Rain,60,2013-03-24 17:55:00
2:15 PM,46.4,46.4,100,29.56,1.8,NNE,4.6,-,N/A,Rain,Light Rain,30,2013-03-24 18:15:00
2:35 PM,46.4,46.4,100,29.54,4.0,ENE,5.8,-,N/A,,Mostly Cloudy,60,2013-03-24 18:35:00
2:55 PM,46.4,46.4,100,29.52,7.0,ENE,6.9,-,N/A,,Overcast,60,2013-03-24 18:55:00
3:15 PM,46.4,46.4,100,29.50,5.0,NE,6.9,-,N/A,,Mostly Cloudy,50,2013-03-24 19:15:00
3:35 PM,46.4,46.4,100,29.49,10.0,ENE,5.8,-,N/A,,Overcast,60,2013-03-24 19:35:00
3:55 PM,46.4,46.4,100,29.47,10.0,ENE,4.6,-,N/A,,Overcast,60,2013-03-24 19:55:00
4:15 PM,46.4,46.4,100,29.46,10.0,NE,5.8,-,N/A,,Overcast,50,2013-03-24 20:15:00
4:35 PM,46.4,46.4,100,29.44,10.0,NE,4.6,-,N/A,,Overcast,50,2013-03-24 20:35:00
4:55 PM,48.2,46.4,93,29.43,10.0,NE,5.8,-,N/A,,Overcast,50,2013-03-24 20:55:00
5:15 PM,48.2,46.4,93,29.43,10.0,ENE,4.6,-,N/A,,Overcast,70,2013-03-24 21:15:00
5:35 PM,48.2,46.4,93,29.42,10.0,ENE,3.5,-,N/A,,Overcast,60,2013-03-24 21:35:00
5:55 PM,48.2,46.4,93,29.42,10.0,ENE,4.6,-,N/A,,Overcast,60,2013-03-24 21:55:00
6:15 PM,48.2,46.4,93,29.41,8.0,ENE,4.6,-,N/A,Rain,Light Rain,70,2013-03-24 22:15:00
6:35 PM,46.4,46.4,100,29.41,4.0,Calm,Calm,-,0.03,Rain,Light Rain,0,2013-03-24 22:35:00
6:55 PM,46.4,46.4,100,29.38,4.0,ENE,6.9,-,0.07,Rain,Light Rain,60,2013-03-24 22:55:00
7:15 PM,46.4,46.4,100,29.37,2.5,East,10.4,-,0.06,Rain,Rain,80,2013-03-24 23:15:00
7:35 PM,46.4,46.4,100,29.42,2.5,West,8.1,-,0.17,Rain-Thunderstorm,Heavy Rain,280,2013-03-24 23:35:00
7:55 PM,46.4,44.6,93,29.47,3.0,West,8.1,20.7,0.45,Rain,Rain,280,2013-03-24 23:55:00
8:15 PM,44.6,42.8,93,29.49,5.0,West,6.9,-,0.03,Rain,Light Rain,270,2013-03-25 00:15:00
8:35 PM,44.6,41.0,87,29.49,5.0,West,12.7,-,0.08,Rain,Light Rain,280,2013-03-25 00:35:00
8:55 PM,44.6,41.0,87,29.50,7.0,West,5.8,-,0.10,Rain,Light Rain,280,2013-03-25 00:55:00
9:15 PM,42.8,41.0,93,29.50,6.0,WNW,3.5,-,0.01,Rain,Light Rain,290,2013-03-25 01:15:00
9:55 PM,41.0,41.0,100,29.51,10.0,Calm,Calm,-,0.01,,Overcast,0,2013-03-25 01:55:00
10:15 PM,41.0,41.0,100,29.51,9.0,Calm,Calm,-,N/A,,Overcast,0,2013-03-25 02:15:00
10:35 PM,39.2,39.2,100,29.50,9.0,Calm,Calm,-,N/A,,Mostly Cloudy,0,2013-03-25 02:35:00
10:55 PM,39.2,39.2,100,29.50,8.0,Calm,Calm,-,N/A,Rain,Light Rain,0,2013-03-25 02:55:00
11:15 PM,39.2,39.2,100,29.53,2.5,West,19.6,25.3,0.03,Rain,Rain,270,2013-03-25 03:15:00
11:35 PM,39.2,37.4,93,29.54,4.0,WSW,16.1,27.6,0.07,Rain,Light Rain,250,2013-03-25 03:35:00
11:55 PM,39.2,35.6,87,29.54,8.0,WSW,11.5,17.3,0.07,Rain,Light Rain,240,2013-03-25 03:55:00